EJU79VD LFPG-LIML

Flight info

Callsign EJU79VD
Flight time 1h 3m
Altitude 37000
Route LANVI DCT DEVDI DCT RIPUS DCT GERSA DCT SOSON DCT ODINA
Aircraft A319/M-SDE3FGHIRWY/LB1

Departure

Time 2026-05-04 16:05
Airport Charles de Gaulle International Airport (LFPG)

Arrival

Time 2026-05-04 17:08
Airport Milano Linate Airport (LIML)
Time Latitude Longitude Altitude Speed Heading
2026-05-04 15:47 49.00563 2.56662 361 ft 0 kts 177°
2026-05-04 15:57 49.00577 2.56660 361 ft 2 kts 180°
2026-05-04 15:57 49.00593 2.56659 360 ft 2 kts 175°
2026-05-04 15:57 49.00610 2.56657 358 ft 2 kts 185°
2026-05-04 15:58 49.00625 2.56664 361 ft 2 kts 219°
2026-05-04 15:58 49.00637 2.56682 361 ft 2 kts 248°
2026-05-04 15:58 49.00640 2.56693 360 ft 0 kts 268°
2026-05-04 15:59 49.00640 2.56689 360 ft 1 kts 267°
2026-05-04 15:59 49.00638 2.56663 356 ft 7 kts 266°
2026-05-04 15:59 49.00632 2.56541 354 ft 15 kts 265°
2026-05-04 16:00 49.00624 2.56386 363 ft 15 kts 268°
2026-05-04 16:00 49.00615 2.56228 354 ft 15 kts 264°
2026-05-04 16:00 49.00604 2.56071 359 ft 15 kts 256°
2026-05-04 16:00 49.00572 2.55915 357 ft 16 kts 263°
2026-05-04 16:01 49.00560 2.55756 356 ft 15 kts 266°
2026-05-04 16:01 49.00552 2.55596 354 ft 16 kts 265°
2026-05-04 16:01 49.00544 2.55431 354 ft 16 kts 256°
2026-05-04 16:01 49.00465 2.55330 362 ft 16 kts 188°
2026-05-04 16:02 49.00357 2.55369 363 ft 16 kts 163°
2026-05-04 16:02 49.00246 2.55419 356 ft 17 kts 165°
2026-05-04 16:02 49.00013 2.55517 354 ft 18 kts 164°
2026-05-04 16:03 48.99895 2.55587 354 ft 19 kts 144°
2026-05-04 16:03 48.99829 2.55754 361 ft 19 kts 108°
2026-05-04 16:03 48.99717 2.55809 354 ft 18 kts 176°
2026-05-04 16:03 48.99608 2.55868 353 ft 17 kts 120°
2026-05-04 16:04 48.99611 2.56056 355 ft 25 kts 86°
2026-05-04 16:04 48.99721 2.58114 359 ft 161 kts 85°
2026-05-04 16:04 48.99815 2.59858 878 ft 168 kts 85°
2026-05-04 16:05 48.99917 2.61640 1580 ft 170 kts 85°
2026-05-04 16:05 49.00019 2.63515 2065 ft 188 kts 85°
2026-05-04 16:05 49.00250 2.67952 2931 ft 231 kts 85°
2026-05-04 16:06 49.00379 2.70432 3722 ft 240 kts 85°
2026-05-04 16:06 49.00727 2.77697 5967 ft 268 kts 90°
2026-05-04 16:07 49.00442 2.81511 7265 ft 274 kts 99°
2026-05-04 16:07 48.99455 2.90304 10063 ft 288 kts 101°
2026-05-04 16:08 48.99107 2.93421 10505 ft 310 kts 100°
2026-05-04 16:08 48.98114 3.03949 12236 ft 348 kts 97°
2026-05-04 16:09 48.97537 3.11358 13770 ft 359 kts 97°
2026-05-04 16:09 48.96919 3.18996 15100 ft 368 kts 98°
2026-05-04 16:10 48.96255 3.26816 16454 ft 377 kts 98°
2026-05-04 16:11 48.95204 3.38888 18417 ft 390 kts 99°
2026-05-04 16:11 48.94847 3.43003 19033 ft 394 kts 99°
2026-05-04 16:12 48.93752 3.55582 20824 ft 406 kts 100°
2026-05-04 16:12 48.93013 3.68627 22499 ft 419 kts 97°
2026-05-04 16:13 48.92612 3.77542 23598 ft 426 kts 98°
2026-05-04 16:13 48.92141 3.86595 24515 ft 432 kts 98°
2026-05-04 16:14 48.91624 3.95751 25373 ft 437 kts 98°
2026-05-04 16:14 48.91100 4.04954 26231 ft 442 kts 99°
2026-05-04 16:15 48.90207 4.19020 27492 ft 447 kts 104°
2026-05-04 16:16 48.88213 4.27865 28307 ft 441 kts 122°
2026-05-04 16:16 48.83715 4.40159 29481 ft 446 kts 124°
2026-05-04 16:17 48.80679 4.48404 30251 ft 449 kts 124°
2026-05-04 16:18 48.76107 4.60804 31343 ft 451 kts 124°
2026-05-04 16:18 48.74579 4.64947 31780 ft 450 kts 124°
2026-05-04 16:19 48.69998 4.77298 33072 ft 447 kts 124°
2026-05-04 16:19 48.66964 4.85446 34045 ft 442 kts 125°
2026-05-04 16:20 48.62434 4.97576 35064 ft 442 kts 124°
2026-05-04 16:20 48.59415 5.05617 35643 ft 444 kts 124°
2026-05-04 16:21 48.54826 5.17818 36445 ft 446 kts 124°
2026-05-04 16:22 48.51735 5.25970 36888 ft 449 kts 124°
2026-05-04 16:23 48.42403 5.50487 36978 ft 450 kts 124°
2026-05-04 16:25 48.33010 5.74968 36999 ft 450 kts 125°
2026-05-04 16:26 48.23262 6.04660 36983 ft 454 kts 120°
2026-05-04 16:28 48.16414 6.25991 37006 ft 454 kts 120°
2026-05-04 16:29 48.06796 6.55694 37000 ft 454 kts 120°
2026-05-04 16:31 47.99849 6.76928 37011 ft 455 kts 121°
2026-05-04 16:32 47.91450 7.02370 37002 ft 456 kts 121°
2026-05-04 16:33 47.85802 7.19327 37008 ft 457 kts 121°
2026-05-04 16:34 47.81560 7.32017 36999 ft 456 kts 121°
2026-05-04 16:35 47.72794 7.57030 37021 ft 451 kts 130°
2026-05-04 16:36 47.67208 7.68271 37026 ft 451 kts 130°
2026-05-04 16:37 47.61621 7.79489 37023 ft 450 kts 130°
2026-05-04 16:38 47.54193 7.94360 37012 ft 450 kts 130°
2026-05-04 16:39 47.45464 8.11735 36980 ft 452 kts 131°
2026-05-04 16:40 47.37309 8.27853 36987 ft 452 kts 131°
2026-05-04 16:41 47.28236 8.44768 36988 ft 446 kts 143°
2026-05-04 16:42 47.20148 8.50700 36972 ft 431 kts 172°
2026-05-04 16:43 47.14221 8.51706 36970 ft 429 kts 178°
2026-05-04 16:43 47.05303 8.52999 36952 ft 429 kts 178°
2026-05-04 16:45 46.87472 8.55578 36992 ft 430 kts 178°
2026-05-04 16:46 46.72572 8.57715 37018 ft 432 kts 178°
2026-05-04 16:47 46.60591 8.59432 37045 ft 433 kts 178°
2026-05-04 16:48 46.48595 8.61127 37066 ft 434 kts 178°
2026-05-04 16:49 46.42579 8.61983 36854 ft 434 kts 178°
2026-05-04 16:49 46.36511 8.62834 34275 ft 442 kts 178°
2026-05-04 16:50 46.30430 8.63680 31490 ft 443 kts 176°
2026-05-04 16:50 46.24300 8.64548 28525 ft 440 kts 176°
2026-05-04 16:51 46.18379 8.65390 27004 ft 408 kts 176°
2026-05-04 16:51 46.15599 8.65782 26392 ft 395 kts 176°
2026-05-04 16:51 46.10233 8.67131 25165 ft 392 kts 164°
2026-05-04 16:52 46.05320 8.70533 23933 ft 392 kts 154°
2026-05-04 16:52 46.02930 8.72423 23275 ft 391 kts 154°
2026-05-04 16:53 45.98223 8.76129 22151 ft 386 kts 154°
2026-05-04 16:53 45.91199 8.81627 20615 ft 379 kts 154°
2026-05-04 16:54 45.88897 8.83432 20126 ft 375 kts 155°
2026-05-04 16:55 45.79836 8.90512 18165 ft 366 kts 155°
2026-05-04 16:55 45.75407 8.93966 17162 ft 359 kts 155°
2026-05-04 16:56 45.71038 8.97318 16156 ft 354 kts 156°
2026-05-04 16:56 45.64527 9.01966 14638 ft 345 kts 165°
2026-05-04 16:57 45.62212 9.02775 14118 ft 341 kts 172°
2026-05-04 16:57 45.57546 9.03943 12994 ft 337 kts 172°
2026-05-04 16:58 45.50710 9.05662 11371 ft 328 kts 171°
2026-05-04 16:58 45.48500 9.06221 10836 ft 325 kts 171°
2026-05-04 16:59 45.44213 9.07301 10498 ft 298 kts 171°
2026-05-04 17:00 45.36575 9.09221 9846 ft 269 kts 171°
2026-05-04 17:00 45.31003 9.10609 8570 ft 274 kts 170°
2026-05-04 17:01 45.27251 9.11543 7671 ft 273 kts 170°
2026-05-04 17:01 45.23586 9.12576 6875 ft 270 kts 158°
2026-05-04 17:02 45.21198 9.16412 5978 ft 268 kts 105°
2026-05-04 17:02 45.21578 9.21590 4879 ft 259 kts 77°
2026-05-04 17:03 45.21958 9.23994 4704 ft 240 kts 77°
2026-05-04 17:03 45.22308 9.26221 4585 ft 228 kts 78°
2026-05-04 17:03 45.24047 9.29801 4136 ft 231 kts 15°
2026-05-04 17:04 45.27162 9.29593 3512 ft 224 kts 352°
2026-05-04 17:04 45.30185 9.29246 2930 ft 211 kts 352°
2026-05-04 17:05 45.33035 9.28941 2427 ft 199 kts 353°
2026-05-04 17:05 45.35696 9.28657 1869 ft 179 kts 352°
2026-05-04 17:06 45.37952 9.28417 1435 ft 144 kts 353°
2026-05-04 17:06 45.38914 9.28312 1243 ft 134 kts 352°
2026-05-04 17:07 45.40742 9.28126 887 ft 132 kts 351°
2026-05-04 17:07 45.41354 9.28054 792 ft 131 kts 351°
2026-05-04 17:07 45.42562 9.27919 556 ft 131 kts 352°
2026-05-04 17:07 45.43462 9.27822 383 ft 129 kts 354°
2026-05-04 17:08 45.44300 9.27733 353 ft 104 kts 356°
2026-05-04 17:08 45.45226 9.27636 359 ft 39 kts
2026-05-04 17:08 45.45418 9.27739 361 ft 15 kts 30°
2026-05-04 17:09 45.45425 9.27745 361 ft 1 kts 31°
2026-05-04 17:09 45.45443 9.27771 364 ft 6 kts 50°
2026-05-04 17:09 45.45472 9.27816 362 ft 6 kts 32°
2026-05-04 17:10 45.45560 9.27815 363 ft 7 kts
2026-05-04 17:10 45.45891 9.27826 363 ft 13 kts 20°
2026-05-04 17:11 45.45917 9.27922 368 ft 7 kts 34°
2026-05-04 17:11 45.45970 9.27920 363 ft 8 kts 354°
2026-05-04 17:11 45.45976 9.27920 363 ft 0 kts 359°